Location: Unspecified
(0.0000°N, 0.0000°E)
Time: 13:25:06
(UTC+00:00)

Vanguard 2 - Pass Details

Date: 22 September 2019
Orbit: 554 x 2937 km, 32.9° (Epoch: 13 October)

Event Time Altitude Azimuth Distance (km) Brightness Sun altitude
Rises 20:57:23 0° 223° (SW) 5,764 12.4 -46.2°
Reaches altitude 10° 21:00:59 10° 218° (SW) 5,021 11.9 -47.1°
Enters shadow 21:11:17 44° 185° (S) 3,491 10.6 -49.6°
Maximum altitude 21:16:14 53° 144° (SE) 3,331 - -50.9°
Drops below altitude 10° 21:33:14 10° 72° (ENE) 5,577 - -55.1°
Sets 21:37:25 0° 68° (ENE) 6,419 - -56.2°
